Miscellaneous Local Product
Issued by NWS North Platte, NE

Home | Current Version | Previous Version | Text Only | Print | Product List | Glossary On
Versions: 1 2 3 4 5 6 7 8 9 10 11 12 13 14 15 16 17 18 19 20 21 22 23 24 25 26 27 28 29 30 31 32 33 34 35 36 37 38 39 40 41 42 43 44 45 46 47 48 49 50
364
AXUS43 KLBF 240810
MISLBF


WESTERN AND NORTH CENTRAL NEBRASKA HOURLY WEATHER ROUNDUP
NATIONAL WEATHER SERVICE NORTH PLATTE NE
300 AM CDT SUN SEP 24 2017

NOTE: "FAIR" INDICATES FEW OR NO CLOUDS BELOW 12,000 FEET WITH NO
SIGNIFICANT WEATHER AND/OR OBSTRUCTIONS TO VISIBILITY.

NOTE: STATIONS NOT REPORTING VARIABLES SUCH AS SKY/WEATHER OR
PRESSURE ARE PROVIDED BY RAWS AND APRS NETWORKS AND ARE NOT UNDER
NATIONAL WEATHER SERVICE QUALITY CONTROL.

...OBSERVATIONS IN AND NEAR THE EASTERN PANHANDLE OF NEBRASKA...

CITY           SKY/WX    TMP DP  RH WIND       PRES   REMARKS
PINE RIDGE     LGT RAIN  47  46  97 N8        29.96F
GORDON         LGT RAIN  46  45  93 N8        29.93F
CHADRON        CLOUDY    46  44  93 NE7       29.97S
ALLIANCE       LGT RAIN  44  43  96 NE10      29.94F
SIDNEY         LGT RAIN  44  43  96 N9        29.96R
CRESCENT LAKE    N/A     45  45 100 N8          N/A
$$

...OBSERVATIONS IN NORTHERN NEBRASKA AND FAR SOUTHERN SOUTH DAKOTA...

CITY           SKY/WX    TMP DP  RH WIND       PRES   REMARKS
WINNER         LGT RAIN  52  51  97 NW5       29.90F
VALENTINE      LGT RAIN  51  49  92 N6        29.93S
THEDFORD       RAIN      50  49  97 N6        29.92F
AINSWORTH      RAIN      50  50 100 N6        29.91S
O`NEILL        CLOUDY    54  54 100 N6        29.90S FOG
ORD            CLOUDY    57  55  93 N6        29.87F FOG
BROKEN BOW     LGT RAIN  55  54  96 N8        29.87F
HALSEY           N/A     50  50  99 CALM        N/A
BUTTE            N/A     53  52  97 NW3         N/A
CHAMBERS         N/A     54  53  98 CALM        N/A
EWING            N/A     55  54  96 CALM        N/A
$$

...OBSERVATIONS IN SOUTHWEST NEBRASKA AND FAR NORTHEAST COLORADO...

CITY           SKY/WX    TMP DP  RH WIND       PRES   REMARKS
WRAY           DRIZZLE  N/A N/A N/A N15G21    29.90F
HOLYOKE        LGT RAIN  48  45  87 NE10      29.92F
IMPERIAL       LGT RAIN  49  47  93 N14       29.91S
OGALLALA       CLOUDY    50  48  93 N15       29.92F
NORTH PLATTE   HVY RAIN  53  52  96 N9        29.88F FOG
MCCOOK         FOG       59  59 100 E8        29.84S VSB 1
LEXINGTON      DRIZZLE   59  57  94 CALM      29.87S
STAPLETON        N/A     49  48  98 CALM        N/A
CALLAWAY         N/A     54  53  97 E9          N/A
$$

...OBSERVATIONS IN CENTRAL LINCOLN COUNTY AREA...

CITY           SKY/WX    TMP DP  RH WIND       PRES   REMARKS
N.P. AIRPORT   HVY RAIN  53  52  96 N9        29.88F FOG
N.P. DOWNTOWN    N/A     51  50  97 NW3         N/A
N.P. SOUTHEAST   N/A     51  50  97 N3          N/A
N.P. HILLCREST   N/A     51  51 100 N9          N/A
$$

...SOME OBSERVATIONS FROM AROUND THE REGION...

CITY           SKY/WX    TMP DP  RH WIND       PRES   REMARKS
DENVER         CLOUDY    45  42  89 CALM      29.99S
LIMON            N/A    N/A N/A N/A MISG      29.93R
ASPEN          CLOUDY    36  33  89 SW6       29.92S WCI  31
LARAMIE        CLOUDY    39  37  92 S13       29.97S WCI  31
CASPER         CLOUDY    37  36  96 NE10      30.04R WCI  30
CHEYENNE       CLOUDY    43  42  97 CALM      29.99F FOG
SCOTTSBLUFF    CLOUDY    46  43  89 W8        29.98R
GRAND ISLAND   PTCLDY    69  63  81 S10       29.87S
OMAHA          MOCLDY    73  64  73 S10       29.91S
SIOUX FALLS    CLOUDY    59  59 100 E6        29.88F FOG
PIERRE         LGT RAIN  52  51  97 N6        29.90S
BISMARCK       LGT RAIN  49  48  97 N10       30.00F
KANSAS CITY    CLEAR     72  67  84 SE9       29.95S
HILL CITY      CLOUDY    66  64  93 E3        29.87S
WICHITA        CLEAR     73  66  78 SE10      29.90F
DODGE CITY     CLOUDY    73  60  63 SE20      29.88F
OKLAHOMA CITY  PTCLDY    70  65  84 S6        29.91R
DALLAS         PTCLDY    78  68  71 S9        29.88R
$$




USA.gov is the U.S. government's official web portal to all federal, state and local government web resources and services.